AT994 Weather Reports


time (UTC)temp
C
wind
direction
speed
KPH
gust
KPH
rain 1hr
cm
rain 24hr
cm
rain mn
cm
humidity
%
barometer
mb
20260507085501 2 109 0.0 0.0 0.00 0.66 0.00 92 1011.6
20260507084935 2 109 0.0 0.0 0.00 0.66 0.00 92 1011.4
20260507083502 2 109 0.0 0.0 0.00 0.69 0.00 92 1011.6
20260507082501 2 109 0.0 0.0 0.00 0.69 0.00 91 1011.8
20260507081502 2 109 0.0 0.0 0.00 0.71 0.00 91 1011.9
20260507080501 2 109 0.0 0.0 0.00 0.71 0.00 91 1011.8
20260507075501 2 109 0.0 0.0 0.00 0.74 0.00 91 1011.6
20260507074501 3 109 0.0 0.0 0.00 0.76 0.00 90 1011.5
20260507073502 3 109 0.0 0.0 0.00 0.79 0.00 90 1011.6
20260507072502 3 109 0.0 0.0 0.00 0.81 0.00 90 1011.7
20260507071901 4 109 0.0 0.0 0.00 0.86 0.00 90 1012.0
20260507071633 3 109 0.0 0.0 0.00 0.84 0.00 90 1011.8
20260507065501 4 109 0.0 0.0 0.00 0.89 0.00 89 1012.1
20260507064501 4 109 0.0 0.0 0.00 0.94 0.00 89 1011.8
20260507063501 5 109 0.0 0.0 0.00 0.97 0.00 89 1011.9
20260507062501 5 109 0.0 0.0 0.00 0.99 0.00 88 1011.7
20260507061502 5 109 0.0 0.0 0.00 1.02 0.00 88 1011.8
20260507060501 5 109 0.0 0.0 0.00 1.09 0.00 89 1011.9
20260507055501 5 109 0.0 0.0 0.00 1.14 0.00 89 1011.9
20260507054502 5 109 0.0 0.0 0.00 1.19 0.00 89 1012.0
20260507053501 5 109 0.0 0.0 0.00 1.24 0.00 89 1012.0
20260507052946 5 109 0.0 0.0 0.00 1.30 0.00 90 1012.1
20260507051501 5 109 0.0 0.0 0.00 1.35 0.00 90 1012.3
20260507050502 5 109 0.0 0.0 0.00 1.40 0.00 90 1012.4
20260507045501 5 109 0.0 0.0 0.00 1.42 0.00 90 1012.6
20260507044501 5 109 0.0 0.0 0.00 1.47 0.00 90 1012.4
20260507043937 5 109 0.0 0.0 0.00 1.52 0.00 91 1012.4
20260507042501 5 109 0.0 0.0 0.00 1.52 0.00 91 1012.4
20260507041501 5 109 0.0 0.0 0.00 1.57 0.00 91 1012.1
20260507040501 5 109 0.0 0.0 0.00 1.60 0.00 91 1012.3
20260507035501 5 109 0.0 0.0 0.00 1.60 1.60 92 1012.1
20260507034500 5 109 0.0 0.0 0.00 1.63 1.60 92 1012.1
20260507033935 5 109 0.0 0.0 0.00 1.65 1.60 92 1012.0
20260507032935 6 109 0.0 0.0 0.00 1.68 1.60 92 1012.0
20260507031501 6 109 0.0 0.0 0.00 1.68 1.60 92 1011.9
20260507030501 6 109 0.0 0.0 0.00 1.68 1.60 92 1012.0
20260507025501 6 109 0.0 0.0 0.00 1.70 1.60 92 1011.9
20260507024500 6 109 0.0 0.0 0.00 1.70 1.60 92 1011.8
20260507023501 6 109 0.0 0.0 0.00 1.70 1.60 92 1011.7
20260507022501 6 109 0.0 0.0 0.00 1.70 1.60 92 1011.9
20260507021500 6 109 0.0 0.0 0.00 1.70 1.60 92 1011.8
20260507020501 6 109 0.0 0.0 0.00 1.70 1.60 92 1011.8
20260507015936 6 109 0.0 0.0 0.00 1.70 1.60 92 1011.9
20260507014500 6 109 0.0 0.0 0.00 1.70 1.60 92 1011.8
20260507013502 6 109 0.0 0.0 0.00 1.73 1.60 92 1011.6
20260507012501 6 109 0.0 0.0 0.00 1.73 1.60 92 1011.7
20260507011501 6 109 0.0 0.0 0.00 1.75 1.60 92 1011.8
20260507010501 6 106 0.0 0.0 0.00 1.75 1.60 92 1011.7
20260507005500 6 105 0.0 0.0 0.00 1.78 1.60 92 1011.4
20260507002936 5 81 0.0 0.0 0.05 1.83 1.60 92 1011.4
20260507001455 6 81 0.0 0.0 0.08 1.83 1.60 92 1011.1
20260507000454 6 81 0.0 0.0 0.08 1.85 1.60 91 1010.9
20260506234943 6 81 0.0 0.0 0.15 1.88 1.60 90 1010.9
20260506233454 7 84 0.0 0.0 0.10 1.85 1.55 91 1010.9
20260506232940 7 85 0.0 0.0 0.13 1.85 1.55 91 1010.7
20260506231452 7 85 0.0 0.0 0.13 1.85 1.52 90 1010.4
20260506230452 7 85 0.0 0.0 0.13 1.88 1.50 90 1010.1
20260506225452 8 86 0.0 0.0 0.10 1.85 1.47 89 1009.8
20260506224452 8 86 0.0 0.0 0.05 1.83 1.45 88 1009.7
20260506223452 8 86 0.0 0.0 0.05 1.83 1.45 86 1009.5
20260506222452 8 86 0.0 0.0 0.03 1.80 1.40 85 1009.5
20260506221452 8 86 0.0 0.0 0.00 1.78 1.40 84 1009.3
20260506220452 8 86 0.0 0.0 0.00 1.80 1.40 84 1009.3
20260506215931 8 86 0.0 0.0 0.00 1.83 1.40 84 1009.2
20260506214450 8 86 0.0 0.0 0.00 1.83 1.40 83 1009.1
20260506213449 8 86 0.0 0.0 0.00 1.83 1.40 83 1009.1
20260506213357 9 86 0.0 0.0 0.00 1.85 1.40 82 1009.0
20260506211926 9 86 0.0 0.0 0.00 1.85 1.40 80 1009.1
20260506211348 10 87 0.0 0.0 0.00 1.85 1.40 79 1009.1
20260506211129 10 86 0.0 0.0 0.00 1.85 1.40 80 1009.2
20260506211125 10 86 0.0 0.0 0.00 1.85 1.40 80 1009.1
20260506210841 7 86 0.0 0.0 0.00 1.85 1.40 89 1009.4
20260506210831 9 0 0.0 0.0 0.00 1.85 1.40 83 1009.1
20260506210815 10 86 0.0 0.0 0.00 1.85 1.40 78 1009.2
20260506210811 8 0 0.0 0.0 0.00 1.85 1.40 82 1009.2
20260506210743 10 86 0.0 0.0 0.00 1.85 1.40 79 1009.2
20260506204108 8 86 0.0 0.0 0.00 1.85 1.40 82 1009.2
20260506204104 10 87 0.0 0.0 0.00 1.85 1.40 78 1009.2
20260506204100 10 0 0.0 0.0 0.00 1.85 1.40 78 1009.2
20260506195757 8 0 0.0 0.0 0.00 1.85 1.40 83 1009.3
20260506195654 8 86 0.0 0.0 0.00 1.85 1.40 83 1009.3
20260506195618 8 0 0.0 0.0 0.00 1.85 1.40 85 1009.3
20260506195540 8 0 0.0 0.0 0.00 1.85 1.40 87 1009.5
20260506184542 7 86 0.0 0.0 0.00 1.85 1.40 89 1009.5
20260506184537 8 0 0.0 0.0 0.00 1.85 1.40 88 1009.4
20260506181429 7 86 0.0 0.0 0.00 1.85 1.40 90 1009.6
20260506180430 7 86 0.0 0.0 0.00 1.85 1.40 90 1009.7
20260506175425 7 86 0.0 0.0 0.00 1.85 1.40 90 1009.7
20260506174425 7 86 0.0 0.0 0.00 1.85 1.40 91 1009.7
20260506173425 7 86 0.0 0.0 0.00 1.85 1.40 91 1009.5
20260506172426 7 86 0.0 0.0 0.00 1.85 1.40 92 1009.4
20260506172340 7 86 0.0 0.0 0.00 1.85 1.40 92 1009.2
20260506170423 7 86 0.0 0.0 0.00 1.85 1.40 92 1009.0
20260506165903 7 86 0.0 0.0 0.00 1.85 1.40 92 1009.0
20260506164421 7 86 0.0 0.0 0.00 1.85 1.40 92 1009.1
20260506163420 7 86 0.0 0.0 0.00 1.85 1.40 92 1009.0
20260506162415 6 86 0.0 0.0 0.00 1.85 1.40 92 1009.1
20260506161414 6 86 0.0 0.0 0.00 1.85 1.40 92 1009.1
20260506160415 6 86 0.0 0.0 0.00 1.85 1.40 93 1009.0
20260506155415 6 86 0.0 0.0 0.00 1.85 1.40 93 1009.0
20260506154415 6 86 0.0 0.0 0.00 1.85 1.40 92 1009.1
20260506153415 6 86 0.0 0.0 0.00 1.85 1.40 92 1009.1
20260506152415 6 86 0.0 0.0 0.00 1.85 1.40 92 1008.9
20260506151415 6 86 0.0 1.6 0.00 1.85 1.40 92 1008.8
20260506150414 6 87 0.0 0.0 0.00 1.85 1.40 92 1008.9
20260506145409 6 87 0.0 0.0 0.00 1.85 1.40 92 1008.9
20260506144409 6 87 0.0 0.0 0.00 1.85 1.40 92 1008.8
20260506143842 6 87 0.0 0.0 0.00 1.85 1.40 92 1008.8
20260506142846 6 87 0.0 0.0 0.03 1.85 1.40 92 1008.7
20260506141409 6 87 0.0 0.0 0.03 1.85 1.40 92 1008.6
20260506140856 6 88 0.0 0.0 0.05 1.85 1.40 92 1008.4
20260506135847 6 88 0.0 0.0 0.05 1.85 1.40 92 1008.4
20260506134851 6 88 0.0 0.0 0.08 1.85 1.40 92 1008.6
20260506133408 6 88 0.0 0.0 0.08 1.85 1.40 92 1008.4
20260506132403 6 88 0.0 0.0 0.05 1.83 1.37 92 1008.4
20260506131838 6 88 0.0 0.0 0.08 1.83 1.37 92 1008.4
20260506130403 6 88 0.0 0.0 0.05 1.80 1.35 92 1008.2
20260506125841 6 88 0.0 0.0 0.08 1.80 1.35 92 1008.2
20260506124842 6 88 0.0 1.6 0.05 1.78 1.32 92 1008.2
20260506123836 6 88 0.0 4.8 0.08 1.78 1.32 92 1008.2
20260506122400 6 95 0.0 3.2 0.08 1.78 1.32 92 1008.0
20260506121401 6 71 0.0 0.0 0.05 1.75 1.30 92 1008.2
20260506120400 6 71 0.0 0.0 0.08 1.75 1.30 92 1008.2
20260506115401 6 71 0.0 0.0 0.05 1.73 1.27 92 1008.3
20260506114400 6 71 0.0 0.0 0.08 1.73 1.27 92 1008.3
20260506113839 6 71 0.0 0.0 0.10 1.70 1.24 92 1008.4
20260506112402 6 70 0.0 0.0 0.13 1.70 1.24 92 1008.1
20260506111401 6 71 0.0 0.0 0.15 1.70 1.24 92 1008.1
20260506110401 6 71 0.0 0.0 0.15 1.68 1.22 92 1008.0
20260506105401 6 71 0.0 0.0 0.18 1.68 1.22 92 1007.9
20260506104840 6 70 0.0 0.0 0.18 1.65 1.19 92 1007.7
20260506103400 6 70 0.0 0.0 0.15 1.60 1.14 92 1008.1
20260506103319 6 81 0.0 0.0 0.15 1.57 1.12 92 1008.2
20260506101402 6 81 0.0 0.0 0.13 1.55 1.09 92 1008.3
20260506100401 6 81 0.0 0.0 0.10 1.52 1.07 92 1008.2
20260506095401 6 81 0.0 0.0 0.10 1.50 1.04 92 1008.2
20260506094835 6 81 0.0 0.0 0.08 1.47 1.02 92 1008.4
20260506093352 6 81 0.0 0.0 0.08 1.45 0.99 92 1008.5
20260506092352 6 81 0.0 0.0 0.05 1.42 0.97 92 1008.2
20260506091832 6 81 0.0 0.0 0.08 1.42 0.97 92 1008.2
20260506090352 6 82 0.0 0.0 0.08 1.42 0.97 92 1008.0